TimeMDT,TemperatureF,Dew PointF,Humidity,Sea Level PressureIn,VisibilityMPH,Wind Direction,Wind SpeedMPH,Gust SpeedMPH,PrecipitationIn,Events,Conditions,WindDirDegrees,DateUTC
12:53 AM,45.0,39.9,82,29.72,10.0,SSW,11.5,-,N/A,,Overcast,200,2013-09-23 06:53:00
1:53 AM,45.0,39.0,80,29.72,10.0,South,5.8,-,N/A,,Scattered Clouds,190,2013-09-23 07:53:00
2:53 AM,43.0,37.9,82,29.72,10.0,SSW,10.4,-,N/A,,Clear,200,2013-09-23 08:53:00
3:53 AM,42.1,37.9,85,29.78,10.0,SSW,10.4,-,N/A,,Partly Cloudy,200,2013-09-23 09:53:00
4:53 AM,43.0,36.0,76,29.80,10.0,SSW,10.4,-,N/A,,Mostly Cloudy,210,2013-09-23 10:53:00
5:53 AM,42.1,34.0,73,29.81,10.0,SSW,9.2,-,N/A,,Partly Cloudy,200,2013-09-23 11:53:00
6:53 AM,42.1,34.0,73,29.83,10.0,SSW,5.8,-,N/A,,Mostly Cloudy,210,2013-09-23 12:53:00
7:53 AM,45.0,36.0,71,29.86,10.0,South,10.4,-,N/A,,Overcast,190,2013-09-23 13:53:00
8:53 AM,46.0,37.9,73,29.88,10.0,South,10.4,-,N/A,,Partly Cloudy,190,2013-09-23 14:53:00
9:53 AM,51.1,39.9,66,29.88,10.0,SW,13.8,-,N/A,,Partly Cloudy,220,2013-09-23 15:53:00
10:53 AM,55.0,35.1,47,29.88,10.0,SW,17.3,24.2,N/A,,Partly Cloudy,230,2013-09-23 16:53:00
11:53 AM,57.0,30.9,37,29.88,10.0,WSW,19.6,27.6,N/A,,Scattered Clouds,240,2013-09-23 17:53:00
12:53 PM,59.0,32.0,36,29.88,10.0,WSW,10.4,20.7,N/A,,Clear,250,2013-09-23 18:53:00
1:53 PM,60.1,30.0,32,29.86,10.0,West,12.7,-,N/A,,Clear,260,2013-09-23 19:53:00
2:53 PM,62.1,27.0,26,29.86,10.0,WSW,15.0,18.4,N/A,,Clear,240,2013-09-23 20:53:00
3:53 PM,63.0,28.0,27,29.84,10.0,SW,11.5,20.7,N/A,,Clear,220,2013-09-23 21:53:00
4:53 PM,63.0,28.0,27,29.84,10.0,SW,11.5,16.1,N/A,,Clear,220,2013-09-23 22:53:00
5:53 PM,63.0,28.9,28,29.84,10.0,SW,10.4,-,N/A,,Clear,230,2013-09-23 23:53:00
6:53 PM,57.0,33.1,40,29.86,10.0,SW,8.1,-,N/A,,Clear,230,2013-09-24 00:53:00
7:53 PM,53.1,33.1,47,29.87,10.0,WSW,10.4,-,N/A,,Clear,240,2013-09-24 01:53:00
8:53 PM,52.0,32.0,47,29.89,10.0,SW,9.2,-,N/A,,Clear,220,2013-09-24 02:53:00
9:53 PM,51.1,30.9,46,29.90,10.0,SSW,10.4,-,N/A,,Clear,200,2013-09-24 03:53:00
10:53 PM,50.0,32.0,50,29.91,10.0,South,10.4,-,N/A,,Clear,180,2013-09-24 04:53:00
11:53 PM,48.0,32.0,54,29.91,10.0,SSW,11.5,-,N/A,,Clear,210,2013-09-24 05:53:00